User: anonymous   Login
Location: Unspecified
(0.0000°N, 0.0000°E)
Time: 08:23:32
(UTC+00:00)
Language:

BEESAT - Orbit

View from above orbital plane
View from above orbital plane
View from above satellite
View from above satellite

Ground track
Ground track

The orbit data is extracted from the following two-line orbital elements,

1 35933U 09051C   19345.47913131  .00000102  00000-0  33953-4 0  9999
2 35933  98.6008 158.6047 0005892  10.5373 349.5946 14.56420925542470
Epoch (UTC): 11 December 2019 11:29:56
Eccentricity: 0.0005892
inclination: 98.6008°
perigee height: 700 km
apogee height: 709 km
right ascension of ascending node: 158.6047°
argument of perigee: 10.5373°
revolutions per day: 14.56420925
mean anomaly at epoch: 349.5946°
orbit number at epoch: 54247

The dashed part of the orbit path shows where the satellite is in the earth's shadow,  

DLR